Lid_Strength_Index
4 4 4 3 3 3 2 2 2 1 1 1 1 1 1 0 -0 1 1 0 0 1 1 0 -0 -1 -1 -1 -1 -1 -1 -0 -0
5 4 4 4 3 2 2 2 2 1 1 1 1 1 1 0 0 0 1 0 0 0 -0 -0 -0 -1 -0 -1 -1 -1 -1 0 0
5 4 4 3 3 2 2 2 1 1 1 1 1 1 1 1 1 0 0 0 0 0 -0 -0 -0 -0 -0 -0 -1 -1 -1 -0 -0
5 4 4 3 3 2 2 2 1 1 1 1 1 1 1 1 1 0 0 0 0 0 -0 -0 -0 -0 -0 -0 -0 -0 -0 -0 -0
4 4 3 3 3 3 2 2 2 2 1 1 1 1 1 1 1 1 1 1 0 -0 0 -0 -0 -0 -0 -0 -0 -0 -0 0 -0
4 4 3 3 3 3 3 2 2 2 2 2 1 1 1 1 1 1 1 1 0 -0 -0 -0 -0 -0 -0 -0 -0 -0 -0 -0 -0
4 4 4 3 3 3 3 3 2 2 2 1 1 1 1 1 1 1 1 1 0 0 -0 0 -0 -0 -0 -0 -0 -0 -0 -0 -0
5 4 4 4 4 3 3 3 2 2 2 1 1 1 1 1 1 1 0 1 0 -0 0 0 -0 -0 -0 -0 -0 0 -0 -0 1
5 4 4 3 3 3 3 3 3 2 2 2 1 2 2 1 1 1 1 1 0 0 0 0 0 0 0 0 0 2 1 0 2
5 4 4 3 3 3 3 3 2 2 2 1 2 2 1 1 1 1 1 1 1 1 1 1 0 1 1 1 0 2 2 2 2
5 5 4 3 3 3 2 2 2 2 2 2 2 2 2 2 2 2 2 1 1 2 3 3 3 2 2 1 2 3 3 3 2
4 4 4 3 2 2 2 2 2 2 2 2 2 2 2 2 2 2 2 2 3 3 5 5 5 4 3 2 2 4 4 3 3
4 3 3 3 2 2 2 2 2 2 3 3 3 2 2 2 1 2 2 2 2 3 4 4 5 4 3 4 3 5 5 4 4
3 3 3 3 3 3 2 2 2 3 3 3 2 2 2 3 1 1 1 1 1 4 5 5 4 4 4 4 4 4 6 6 3
3 3 3 3 3 3 2 2 2 3 3 3 4 5 5 2 1 1 1 1 2 4 4 5 5 5 5 4 5 6 5 6 5
3 3 3 3 3 3 3 2 2 4 4 3 4 4 4 3 2 1 1 2 2 4 3 3 5 5 5 4 2 2 5 6 5
4 3 3 3 3 4 4 2 2 3 2 2 3 4 2 2 2 2 2 2 2 3 3 4 5 4 3 3 2 2 1 2 2
4 3 3 3 3 4 3 3 3 2 1 2 2 2 2 2 3 3 3 3 3 3 2 3 4 3 3 3 3 2 3 2 0
3 3 3 3 3 3 3 3 3 2 1 1 1 3 3 3 4 4 5 6 6 10 7 8 8 7 4 2 6 8 8 7 7
4 3 3 3 3 3 2 2 2 2 1 1 2 2 3 4 4 5 5 3 2 4 8 10 11 11 9 9 8 11 9 9 9